Time,TemperatureF,DewpointF,PressureIn,WindDirection,WindDirectionDegrees,WindSpeedMPH,WindSpeedGustMPH,Humidity,HourlyPrecipIn,Conditions,Clouds,dailyrainin,SoftwareType,DateUTC
2013-07-24 00:02:00,73.0,72.4,29.33,South,180,0.0,-999.0,98,-99.99,,,0.00,Acu-Link.com,2013-07-24 04:02:00,
2013-07-24 00:17:00,72.9,72.3,29.33,South,180,0.0,-999.0,98,-99.99,,,0.00,Acu-Link.com,2013-07-24 04:17:00,
2013-07-24 00:32:00,72.5,71.9,29.34,South,180,0.0,-999.0,98,-99.99,,,0.00,Acu-Link.com,2013-07-24 04:32:00,
2013-07-24 00:48:00,72.3,71.7,29.33,WSW,247,0.0,-999.0,98,-99.99,,,0.00,Acu-Link.com,2013-07-24 04:48:00,
2013-07-24 01:03:00,72.0,71.4,29.33,WSW,247,0.0,-999.0,98,-99.99,,,0.00,Acu-Link.com,2013-07-24 05:03:00,
2013-07-24 01:18:00,71.6,71.0,29.33,SSW,202,0.0,-999.0,98,-99.99,,,0.00,Acu-Link.com,2013-07-24 05:18:00,
2013-07-24 01:33:00,71.4,70.8,29.33,South,180,0.0,-999.0,98,-99.99,,,0.00,Acu-Link.com,2013-07-24 05:33:00,
2013-07-24 01:48:00,71.6,71.0,29.32,South,180,0.0,-999.0,98,-99.99,,,0.00,Acu-Link.com,2013-07-24 05:48:00,
2013-07-24 02:03:00,71.4,70.8,29.32,South,180,0.0,-999.0,98,-99.99,,,0.00,Acu-Link.com,2013-07-24 06:03:00,
2013-07-24 02:18:00,71.4,70.8,29.32,North,0,0.0,-999.0,98,-99.99,,,0.00,Acu-Link.com,2013-07-24 06:18:00,
2013-07-24 02:33:00,71.6,71.0,29.32,NNE,22,0.0,-999.0,98,-99.99,,,0.00,Acu-Link.com,2013-07-24 06:33:00,
2013-07-24 02:48:00,71.8,71.2,29.31,WNW,292,0.0,-999.0,98,-99.99,,,0.00,Acu-Link.com,2013-07-24 06:48:00,
2013-07-24 03:03:00,71.6,71.0,29.31,SW,225,0.0,-999.0,98,-99.99,,,0.00,Acu-Link.com,2013-07-24 07:03:00,
2013-07-24 03:19:00,71.2,70.6,29.31,North,0,0.0,-999.0,98,-99.99,,,0.00,Acu-Link.com,2013-07-24 07:19:00,
2013-07-24 03:34:00,70.9,70.3,29.31,West,270,0.0,-999.0,98,-99.99,,,0.00,Acu-Link.com,2013-07-24 07:34:00,
2013-07-24 03:49:00,70.5,69.9,29.31,West,270,0.0,-999.0,98,-99.99,,,0.00,Acu-Link.com,2013-07-24 07:49:00,
2013-07-24 04:04:00,70.3,69.7,29.32,West,270,0.0,-999.0,98,-99.99,,,0.00,Acu-Link.com,2013-07-24 08:04:00,
2013-07-24 04:20:00,70.3,69.7,29.31,West,270,0.0,-999.0,98,-99.99,,,0.00,Acu-Link.com,2013-07-24 08:20:00,
2013-07-24 04:35:00,70.3,69.7,29.31,WSW,247,0.0,-999.0,98,-99.99,,,0.00,Acu-Link.com,2013-07-24 08:35:00,
2013-07-24 04:50:00,70.3,69.7,29.31,SW,225,0.0,-999.0,98,-99.99,,,0.00,Acu-Link.com,2013-07-24 08:50:00,
2013-07-24 05:05:00,70.2,69.6,29.32,South,180,0.0,-999.0,98,-99.99,,,0.00,Acu-Link.com,2013-07-24 09:05:00,
2013-07-24 05:20:00,70.5,69.9,29.31,SW,225,0.0,-999.0,98,-99.99,,,0.00,Acu-Link.com,2013-07-24 09:20:00,
2013-07-24 05:36:00,70.2,69.6,29.32,SSW,202,0.0,-999.0,98,-99.99,,,0.00,Acu-Link.com,2013-07-24 09:36:00,
2013-07-24 06:06:00,70.2,69.6,29.34,SW,225,0.0,-999.0,98,-99.99,,,0.00,Acu-Link.com,2013-07-24 10:06:00,
2013-07-24 06:21:00,70.2,69.6,29.35,NNW,337,0.0,-999.0,98,-99.99,,,0.00,Acu-Link.com,2013-07-24 10:21:00,
2013-07-24 06:36:00,70.0,69.4,29.35,West,270,0.0,-999.0,98,-99.99,,,0.00,Acu-Link.com,2013-07-24 10:36:00,
2013-07-24 06:51:00,70.3,69.7,29.35,SW,225,0.0,-999.0,98,-99.99,,,0.00,Acu-Link.com,2013-07-24 10:51:00,
2013-07-24 07:06:00,71.6,71.0,29.35,ESE,112,1.7,-999.0,98,-99.99,,,0.00,Acu-Link.com,2013-07-24 11:06:00,
2013-07-24 07:22:00,72.7,72.1,29.37,ESE,112,2.7,-999.0,98,-99.99,,,0.00,Acu-Link.com,2013-07-24 11:22:00,
2013-07-24 07:37:00,73.9,73.3,29.37,ESE,112,0.0,-999.0,98,-99.99,,,0.00,Acu-Link.com,2013-07-24 11:37:00,
2013-07-24 07:52:00,74.5,73.9,29.38,SE,135,0.0,-999.0,98,-99.99,,,0.00,Acu-Link.com,2013-07-24 11:52:00,
2013-07-24 08:07:00,75.9,75.3,29.38,South,180,0.0,-999.0,98,-99.99,,,0.00,Acu-Link.com,2013-07-24 12:07:00,
2013-07-24 08:22:00,77.4,76.8,29.38,NNW,337,1.1,-999.0,98,-99.99,,,0.00,Acu-Link.com,2013-07-24 12:22:00,
2013-07-24 08:37:00,77.9,77.3,29.38,ESE,112,2.2,-999.0,98,-99.99,,,0.00,Acu-Link.com,2013-07-24 12:37:00,
2013-07-24 08:52:00,78.8,78.2,29.38,ESE,112,4.2,-999.0,98,-99.99,,,0.00,Acu-Link.com,2013-07-24 12:52:00,
2013-07-24 09:07:00,79.0,78.4,29.39,East,90,3.2,-999.0,98,-99.99,,,0.00,Acu-Link.com,2013-07-24 13:07:00,
2013-07-24 09:22:00,78.6,78.0,29.39,East,90,2.2,-999.0,98,-99.99,,,0.00,Acu-Link.com,2013-07-24 13:22:00,
2013-07-24 09:38:00,79.3,78.7,29.41,ENE,67,3.2,-999.0,98,-99.99,,,0.00,Acu-Link.com,2013-07-24 13:38:00,
2013-07-24 09:53:00,79.7,79.1,29.40,SSE,157,3.7,-999.0,98,-99.99,,,0.00,Acu-Link.com,2013-07-24 13:53:00,
2013-07-24 10:08:00,79.9,79.3,29.40,South,180,0.0,-999.0,98,-99.99,,,0.00,Acu-Link.com,2013-07-24 14:08:00,
2013-07-24 10:23:00,80.6,80.0,29.41,ESE,112,2.2,-999.0,98,-99.99,,,0.00,Acu-Link.com,2013-07-24 14:23:00,
2013-07-24 10:38:00,81.1,80.5,29.41,SW,225,0.0,-999.0,98,-99.99,,,0.00,Acu-Link.com,2013-07-24 14:38:00,
2013-07-24 10:53:00,82.4,81.8,29.43,North,0,0.0,-999.0,98,-99.99,,,0.00,Acu-Link.com,2013-07-24 14:53:00,
2013-07-24 11:08:00,82.4,81.8,29.42,NE,45,2.2,-999.0,98,-99.99,,,0.00,Acu-Link.com,2013-07-24 15:08:00,
2013-07-24 11:23:00,80.8,80.2,29.43,East,90,4.7,-999.0,98,-99.99,,,0.00,Acu-Link.com,2013-07-24 15:23:00,
2013-07-24 11:38:00,79.0,78.4,29.43,NNW,337,1.7,-999.0,98,-99.99,,,0.00,Acu-Link.com,2013-07-24 15:38:00,
2013-07-24 11:54:00,79.2,78.6,29.44,NW,315,2.7,-999.0,98,-99.99,,,0.00,Acu-Link.com,2013-07-24 15:54:00,
2013-07-24 12:09:00,78.8,78.2,29.44,ESE,112,7.3,-999.0,98,-99.99,,,0.00,Acu-Link.com,2013-07-24 16:09:00,
2013-07-24 12:24:00,78.3,77.7,29.45,SE,135,1.1,-999.0,98,-99.99,,,0.00,Acu-Link.com,2013-07-24 16:24:00,
2013-07-24 12:39:00,78.1,77.5,29.46,NE,45,3.2,-999.0,98,-99.99,,,0.00,Acu-Link.com,2013-07-24 16:39:00,
2013-07-24 12:54:00,79.7,79.1,29.46,SE,135,0.0,-999.0,98,-99.99,,,0.00,Acu-Link.com,2013-07-24 16:54:00,
2013-07-24 13:09:00,81.0,80.4,29.45,NE,45,0.0,-999.0,98,-99.99,,,0.00,Acu-Link.com,2013-07-24 17:09:00,
2013-07-24 13:24:00,81.1,80.5,29.46,SW,225,2.7,-999.0,98,-99.99,,,0.00,Acu-Link.com,2013-07-24 17:24:00,
2013-07-24 13:39:00,82.9,82.3,29.47,East,90,2.2,-999.0,98,-99.99,,,0.00,Acu-Link.com,2013-07-24 17:39:00,
2013-07-24 13:54:00,80.8,80.2,29.46,East,90,4.7,-999.0,98,-99.99,,,0.00,Acu-Link.com,2013-07-24 17:54:00,
2013-07-24 14:10:00,81.7,81.1,29.46,NE,45,2.2,-999.0,98,-99.99,,,0.00,Acu-Link.com,2013-07-24 18:10:00,
2013-07-24 14:25:00,81.1,80.5,29.48,SSE,157,2.7,-999.0,98,-99.99,,,0.00,Acu-Link.com,2013-07-24 18:25:00,
2013-07-24 14:40:00,80.4,79.8,29.47,SW,225,2.2,-999.0,98,-99.99,,,0.00,Acu-Link.com,2013-07-24 18:40:00,
2013-07-24 14:55:00,80.1,79.5,29.49,SSW,202,2.7,-999.0,98,-99.99,,,0.00,Acu-Link.com,2013-07-24 18:55:00,
2013-07-24 15:10:00,80.4,79.8,29.47,NE,45,1.7,-999.0,98,-99.99,,,0.00,Acu-Link.com,2013-07-24 19:10:00,
2013-07-24 15:25:00,79.9,79.3,29.47,East,90,1.7,-999.0,98,-99.99,,,0.00,Acu-Link.com,2013-07-24 19:25:00,
2013-07-24 15:40:00,81.7,81.1,29.48,WSW,247,0.0,-999.0,98,-99.99,,,0.00,Acu-Link.com,2013-07-24 19:40:00,
2013-07-24 15:55:00,80.4,79.8,29.48,South,180,2.2,-999.0,98,-99.99,,,0.00,Acu-Link.com,2013-07-24 19:55:00,
2013-07-24 16:10:00,79.5,78.9,29.47,ENE,67,2.2,-999.0,98,-99.99,,,0.00,Acu-Link.com,2013-07-24 20:10:00,
2013-07-24 16:25:00,79.7,79.1,29.49,ESE,112,1.7,-999.0,98,-99.99,,,0.00,Acu-Link.com,2013-07-24 20:25:00,
2013-07-24 16:41:00,79.2,78.6,29.48,East,90,4.2,-999.0,98,-99.99,,,0.00,Acu-Link.com,2013-07-24 20:41:00,
2013-07-24 16:56:00,79.2,78.6,29.47,South,180,2.2,-999.0,98,-99.99,,,0.00,Acu-Link.com,2013-07-24 20:56:00,
2013-07-24 17:41:00,81.0,80.4,29.49,SE,135,0.0,-999.0,98,-99.99,,,0.00,Acu-Link.com,2013-07-24 21:41:00,
2013-07-24 17:56:00,79.7,79.1,29.48,SSW,202,2.7,-999.0,98,-99.99,,,0.00,Acu-Link.com,2013-07-24 21:56:00,
2013-07-24 18:11:00,79.2,78.6,29.49,ESE,112,3.7,-999.0,98,-99.99,,,0.00,Acu-Link.com,2013-07-24 22:11:00,
2013-07-24 18:26:00,78.4,77.8,29.50,SE,135,2.2,-999.0,98,-99.99,,,0.00,Acu-Link.com,2013-07-24 22:26:00,
2013-07-24 18:42:00,78.4,77.8,29.51,SE,135,3.2,-999.0,98,-99.99,,,0.00,Acu-Link.com,2013-07-24 22:42:00,
2013-07-24 18:57:00,77.5,76.9,29.50,East,90,1.1,-999.0,98,-99.99,,,0.00,Acu-Link.com,2013-07-24 22:57:00,
2013-07-24 19:12:00,77.4,76.8,29.52,East,90,6.3,-999.0,98,-99.99,,,0.00,Acu-Link.com,2013-07-24 23:12:00,
2013-07-24 19:27:00,76.5,75.9,29.53,NNE,22,0.0,-999.0,98,-99.99,,,0.00,Acu-Link.com,2013-07-24 23:27:00,
2013-07-24 19:42:00,75.7,75.1,29.54,ESE,112,3.2,-999.0,98,-99.99,,,0.00,Acu-Link.com,2013-07-24 23:42:00,
2013-07-24 19:57:00,74.8,74.2,29.55,South,180,1.7,-999.0,98,-99.99,,,0.00,Acu-Link.com,2013-07-24 23:57:00,
2013-07-24 20:12:00,73.9,73.3,29.55,South,180,1.7,-999.0,98,-99.99,,,0.00,Acu-Link.com,2013-07-25 00:12:00,
2013-07-24 20:27:00,73.4,72.8,29.55,WSW,247,0.0,-999.0,98,-99.99,,,0.00,Acu-Link.com,2013-07-25 00:27:00,
2013-07-24 20:42:00,73.0,72.4,29.56,East,90,0.0,-999.0,98,-99.99,,,0.00,Acu-Link.com,2013-07-25 00:42:00,
2013-07-24 20:58:00,72.3,71.7,29.57,SE,135,0.0,-999.0,98,-99.99,,,0.00,Acu-Link.com,2013-07-25 00:58:00,
2013-07-24 21:13:00,71.4,70.8,29.58,East,90,4.7,-999.0,98,-99.99,,,0.00,Acu-Link.com,2013-07-25 01:13:00,
2013-07-24 21:28:00,71.1,70.5,29.59,ESE,112,4.7,-999.0,98,-99.99,,,0.00,Acu-Link.com,2013-07-25 01:28:00,
2013-07-24 21:43:00,70.9,70.3,29.59,SW,225,0.0,-999.0,98,-99.99,,,0.00,Acu-Link.com,2013-07-25 01:43:00,
2013-07-24 21:58:00,70.0,69.4,29.60,WNW,292,0.0,-999.0,98,-99.99,,,0.00,Acu-Link.com,2013-07-25 01:58:00,
2013-07-24 22:13:00,69.6,69.0,29.60,East,90,1.7,-999.0,98,-99.99,,,0.00,Acu-Link.com,2013-07-25 02:13:00,
2013-07-24 22:28:00,69.1,68.5,29.61,SSE,157,0.0,-999.0,98,-99.99,,,0.00,Acu-Link.com,2013-07-25 02:28:00,
2013-07-24 22:43:00,68.7,68.1,29.61,ESE,112,0.0,-999.0,98,-99.99,,,0.00,Acu-Link.com,2013-07-25 02:43:00,
2013-07-24 22:58:00,68.2,67.6,29.62,South,180,2.7,-999.0,98,-99.99,,,0.00,Acu-Link.com,2013-07-25 02:58:00,
2013-07-24 23:29:00,67.5,66.9,29.62,North,0,1.7,-999.0,98,-99.99,,,0.00,Acu-Link.com,2013-07-25 03:29:00,
2013-07-24 23:44:00,67.5,66.9,29.62,West,270,1.7,-999.0,98,-99.99,,,0.00,Acu-Link.com,2013-07-25 03:44:00,